Elk Mountain, WY

7:01 PM MST on November 16, 2019 (GMT -0700)
Elk Mountain

Weather History for KEHY - October, 2019

Change the Weather History Date:

Sunday, October 20, 2019

  Actual Average (KSAA) Record (KSAA)
Temperature  
Mean Temperature 29 °F -  
Max Temperature 32 °F 58 °F 69 °F (2014)
Min Temperature 26 °F 26 °F 19 °F (2016)
Degree Days  
Heating Degree Days 36    
Moisture  
Dew Point 22 °F    
Average Humidity 74    
Maximum Humidity 86    
Minimum Humidity 64    
Precipitation  
Precipitation 0.00 in - - ()
Sea Level Pressure  
Sea Level Pressure 29.77 in    
Wind  
Wind Speed 24 mph ()    
Max Wind Speed 37 mph    
Max Gust Speed 50 mph    
Visibility 6.2 miles    
Events      
Averages and records for this station are not official NWS values.
T = Trace of Precipitation, MM = Missing Value Source: Averaged Metar Reports

Daily Weather History Graph

Daily Weather History Graph

Search for Another Location

Airport or City:

Astronomy

Oct. 20, 2019 Rise Set
Actual Time 7:23 AM MDT 6:17 PM MDT
Civil Twilight 6:55 AM MDT 6:45 PM MDT
Nautical Twilight 6:22 AM MDT 7:17 PM MDT
Astronomical Twilight 5:50 AM MDT 7:49 PM MDT
Moon 11:25 PM MDT (10/20) 1:57 PM MDT (10/20)
Length of Visible Light 11h 49m
Length of Day
10h 53m
Waning Gibbous, 58% of the Moon is Illuminated
Oct 20
Waning Gibbous
Oct 21
Last Quarter
Oct 27
New
Nov 4
First Quarter
Nov 12
Full

Hourly Weather History & Observations

Time (MDT) Temp. Windchill Dew Point Humidity Pressure Visibility Wind Dir Wind Speed Gust Speed Precip Events Conditions
12:10 AM 30.2 °F 16.8 °F 26.6 °F 86% 29.66 in 1.0 mi WSW 23.0 mph 32.2 mph N/A   Overcast
12:30 AM 30.2 °F 17.1 °F 26.6 °F 86% 29.66 in 1.2 mi WSW 21.9 mph 27.6 mph N/A   Overcast
12:50 AM 28.4 °F 14.1 °F 23.0 °F 80% 29.67 in 4.0 mi WSW 24.2 mph 31.1 mph N/A   Overcast
1:10 AM 28.4 °F 14.1 °F 23.0 °F 80% 29.66 in 2.5 mi WSW 24.2 mph 32.2 mph N/A   Overcast
1:30 AM 28.4 °F 13.8 °F 23.0 °F 80% 29.65 in 2.0 mi WSW 25.3 mph 33.4 mph N/A   Overcast
1:50 AM 28.4 °F 12.5 °F 21.2 °F 74% 29.66 in 10.0 mi WSW 31.1 mph 38.0 mph N/A   Overcast
2:10 AM 28.4 °F 13.5 °F 21.2 °F 74% 29.66 in 10.0 mi WSW 26.5 mph 38.0 mph N/A   Overcast
2:30 AM 28.4 °F 14.4 °F 19.4 °F 69% 29.65 in 10.0 mi SW 23.0 mph 35.7 mph N/A   Mostly Cloudy
2:50 AM 28.4 °F 14.1 °F 19.4 °F 69% 29.68 in 10.0 mi WSW 24.2 mph 33.4 mph N/A   Mostly Cloudy
3:10 AM 28.4 °F 14.7 °F 19.4 °F 69% 29.68 in 10.0 mi WSW 21.9 mph 32.2 mph N/A   Overcast
3:30 AM 28.4 °F 13.8 °F 19.4 °F 69% 29.66 in 10.0 mi WSW 25.3 mph 29.9 mph N/A   Mostly Cloudy
3:50 AM 28.4 °F 13.5 °F 19.4 °F 69% 29.66 in 10.0 mi SW 26.5 mph 33.4 mph N/A   Overcast
4:10 AM 28.4 °F 13.8 °F 19.4 °F 69% 29.66 in 10.0 mi WSW 25.3 mph 32.2 mph N/A   Overcast
4:30 AM 28.4 °F 13.3 °F 19.4 °F 69% 29.66 in 10.0 mi WSW 27.6 mph 36.8 mph N/A   Overcast
4:50 AM 28.4 °F 14.1 °F 19.4 °F 69% 29.65 in 10.0 mi WSW 24.2 mph 39.1 mph N/A   Overcast
5:10 AM 28.4 °F 13.5 °F 19.4 °F 69% 29.65 in 10.0 mi WSW 26.5 mph 36.8 mph N/A   Overcast
5:30 AM 28.4 °F 13.0 °F 19.4 °F 69% 29.65 in 10.0 mi WSW 28.8 mph 41.4 mph N/A   Overcast
5:50 AM 28.4 °F 13.5 °F 19.4 °F 69% 29.65 in 10.0 mi WSW 26.5 mph 42.6 mph N/A   Overcast
6:10 AM 28.4 °F 13.5 °F 19.4 °F 69% 29.64 in 10.0 mi WSW 26.5 mph 40.3 mph N/A   Overcast
6:30 AM 28.4 °F 11.4 °F 19.4 °F 69% 29.63 in 7.0 mi WSW 36.8 mph 46.0 mph N/A   Overcast
6:50 AM 28.4 °F 11.8 °F 21.2 °F 74% 29.63 in 7.0 mi WSW 34.5 mph 43.7 mph N/A   Overcast
7:10 AM 28.4 °F 12.3 °F 21.2 °F 74% 29.64 in 1.2 mi WSW 32.2 mph 42.6 mph N/A   Overcast
7:30 AM 26.6 °F 9.8 °F 21.2 °F 80% 29.64 in 0.5 mi WSW 32.2 mph 40.3 mph N/A   Overcast
7:50 AM 26.6 °F 10.0 °F 21.2 °F 80% 29.64 in 0.8 mi WSW 31.1 mph 39.1 mph N/A   Overcast
8:10 AM 26.6 °F 9.8 °F 21.2 °F 80% 29.64 in 1.5 mi WSW 32.2 mph 41.4 mph N/A   Overcast
8:30 AM 28.4 °F 12.5 °F 21.2 °F 74% 29.66 in 7.0 mi West 31.1 mph 42.6 mph N/A   Overcast
8:50 AM 28.4 °F 12.3 °F 21.2 °F 74% 29.66 in 7.0 mi West 32.2 mph 44.9 mph N/A   Overcast
9:10 AM 28.4 °F 12.5 °F 21.2 °F 74% 29.68 in 10.0 mi West 31.1 mph 43.7 mph N/A   Overcast
9:40 AM 28.4 °F 12.3 °F 21.2 °F 74% 29.68 in 7.0 mi West 32.2 mph 43.7 mph N/A   Overcast
9:50 AM 28.4 °F 11.6 °F 21.2 °F 74% 29.69 in 5.0 mi West 35.7 mph 49.5 mph N/A   Overcast
10:10 AM 28.4 °F 12.0 °F 21.2 °F 74% 29.69 in 2.5 mi West 33.4 mph 41.4 mph N/A   Overcast
10:30 AM 28.4 °F 11.8 °F 21.2 °F 74% 29.70 in 1.2 mi West 34.5 mph 44.9 mph N/A   Overcast
10:50 AM 28.4 °F 12.3 °F 21.2 °F 74% 29.70 in 0.5 mi West 32.2 mph 42.6 mph N/A   Overcast
11:10 AM 28.4 °F 11.8 °F 21.2 °F 74% 29.71 in 0.2 mi West 34.5 mph 43.7 mph N/A   Overcast
11:50 AM 28.4 °F 11.8 °F 23.0 °F 80% 29.73 in 0.2 mi West 34.5 mph 47.2 mph N/A   Overcast
12:10 PM 28.4 °F 12.5 °F 23.0 °F 80% 29.74 in 0.2 mi West 31.1 mph 44.9 mph N/A   Overcast
12:30 PM 28.4 °F 12.0 °F 23.0 °F 80% 29.75 in 0.2 mi West 33.4 mph 40.3 mph N/A   Overcast
12:50 PM 28.4 °F 12.3 °F 23.0 °F 80% 29.76 in 0.5 mi West 32.2 mph 39.1 mph N/A   Overcast
1:30 PM 30.2 °F 15.2 °F 23.0 °F 75% 29.78 in 0.5 mi West 29.9 mph 39.1 mph N/A   Overcast
1:50 PM 30.2 °F 14.9 °F 24.8 °F 80% 29.78 in 0.5 mi West 31.1 mph 38.0 mph N/A   Overcast
2:10 PM 30.2 °F 14.7 °F 24.8 °F 80% 29.80 in 0.5 mi West 32.2 mph 38.0 mph N/A   Overcast
2:30 PM 30.2 °F 14.7 °F 24.8 °F 80% 29.80 in 0.8 mi West 32.2 mph 36.8 mph N/A   Overcast
2:50 PM 30.2 °F 15.2 °F 24.8 °F 80% 29.81 in 1.0 mi West 29.9 mph 38.0 mph N/A   Overcast
3:10 PM 30.2 °F 15.2 °F 24.8 °F 80% 29.83 in 2.0 mi West 29.9 mph 35.7 mph N/A   Overcast
3:30 PM 30.2 °F 16.2 °F 23.0 °F 75% 29.84 in 4.0 mi West 25.3 mph 32.2 mph N/A   Overcast
3:50 PM 32.0 °F 19.5 °F 23.0 °F 69% 29.86 in 10.0 mi West 21.9 mph 32.2 mph N/A   Overcast
4:10 PM 32.0 °F 19.2 °F 23.0 °F 69% 29.87 in 10.0 mi West 23.0 mph 28.8 mph N/A   Overcast
4:30 PM 32.0 °F 19.5 °F 23.0 °F 69% 29.88 in 10.0 mi West 21.9 mph 28.8 mph N/A   Overcast
5:10 PM 32.0 °F 19.5 °F 21.2 °F 64% 29.89 in 10.0 mi WNW 21.9 mph 26.5 mph N/A   Overcast
5:30 PM 32.0 °F 20.1 °F 21.2 °F 64% 29.90 in 10.0 mi West 19.6 mph 27.6 mph N/A   Overcast
5:50 PM 30.2 °F 17.1 °F 21.2 °F 69% 29.90 in 10.0 mi West 21.9 mph 28.8 mph N/A   Mostly Cloudy
6:10 PM 30.2 °F 17.8 °F 21.2 °F 69% 29.91 in 10.0 mi West 19.6 mph 26.5 mph N/A   Mostly Cloudy
6:30 PM 30.2 °F 17.4 °F 19.4 °F 64% 29.92 in 10.0 mi West 20.7 mph - N/A   Mostly Cloudy
6:50 PM 30.2 °F 18.5 °F 19.4 °F 64% 29.93 in 10.0 mi West 17.3 mph 24.2 mph N/A   Scattered Clouds
7:10 PM 30.2 °F 18.1 °F 19.4 °F 64% 29.93 in 10.0 mi West 18.4 mph 24.2 mph N/A   Scattered Clouds
7:30 PM 30.2 °F 17.8 °F 21.2 °F 69% 29.93 in 10.0 mi West 19.6 mph - N/A   Mostly Cloudy
7:50 PM 28.4 °F 16.6 °F 23.0 °F 80% 29.94 in 10.0 mi West 16.1 mph - N/A   Overcast
8:10 PM 28.4 °F 15.8 °F 23.0 °F 80% 29.94 in 10.0 mi West 18.4 mph - N/A   Overcast
8:30 PM 30.2 °F 18.5 °F 23.0 °F 75% 29.94 in 10.0 mi West 17.3 mph - N/A   Overcast
8:50 PM 30.2 °F 19.3 °F 23.0 °F 75% 29.95 in 4.0 mi West 15.0 mph - N/A   Overcast
9:10 PM 30.2 °F 19.8 °F 23.0 °F 75% 29.94 in 5.0 mi West 13.8 mph - N/A   Overcast
9:30 PM 30.2 °F 19.8 °F 24.8 °F 80% 29.94 in 4.0 mi WSW 13.8 mph 20.7 mph N/A   Overcast
9:50 PM 30.2 °F 18.9 °F 24.8 °F 80% 29.95 in 2.0 mi West 16.1 mph - N/A   Overcast
10:10 PM 28.4 °F 14.7 °F 23.0 °F 80% 29.95 in 3.0 mi West 21.9 mph 25.3 mph N/A   Overcast
10:30 PM 28.4 °F 14.7 °F 23.0 °F 80% 29.95 in 7.0 mi West 21.9 mph - N/A   Overcast
10:50 PM 28.4 °F 15.1 °F 23.0 °F 80% 29.95 in 10.0 mi West 20.7 mph 28.8 mph N/A   Overcast
11:10 PM 28.4 °F 15.1 °F 21.2 °F 74% 29.95 in 10.0 mi West 20.7 mph 27.6 mph N/A   Overcast
11:30 PM 28.4 °F 16.6 °F 21.2 °F 74% 29.95 in 10.0 mi WSW 16.1 mph - N/A   Overcast
11:50 PM 28.4 °F 16.2 °F 21.2 °F 74% 29.94 in 10.0 mi West 17.3 mph - N/A   Overcast